Location: Barrio de Canyet
(41.4665°N, 2.2381°E)
Time: 07:21:43
(UTC+00:00)

Cosmos 1328 - Pass Details

Date: 09 April 2020
Orbit: 539 x 544 km, 82.5° (Epoch: 03 June)

Event Time Altitude Azimuth Distance (km) Brightness Sun altitude
Rises 19:06:02 0° 357° (N) 2,719 7.7 -8.2°
Reaches altitude 10° 19:08:15 10° 2° (N) 1,822 6.7 -8.6°
Maximum altitude 19:12:10 51° 79° (E) 690 4.0 -9.3°
Drops below altitude 10° 19:16:03 10° 157° (SSE) 1,808 6.1 -10.0°
Enters shadow 19:17:39 - 161° (SSE) 2,457 6.8 -10.2°
